[[{"header":{"parameterUnit":"m.s-1","parameterCategory":1,"la1":30.2991,"la2":30.254,"lo1":-89.0895,"lo2":-89.0444,"dy":0.0017,"dx":0.0017,"nx":28,"ny":28,"refTime":"2024-08-09T03:00:00:Z","depth":0,"parameterNumber":2,"parameterNumberName":"U-component_of_WINDS"},"data":[0,0,0,0,0,0,0,0,0,0,0,0,0,0,0,0,0,0,0,0,0,0,0,0,0,0,0,0,0,0,0,0,0,0,0,0,0,0,0,0,0,0,0,0,0,0,0,0,0,0,0,0,0,0,0,0,0,0,-0.738,-0.7381,0,-0.7414,-0.7414,-0.7415,-0.7391,-0.739,-0.7389,-0.7388,-0.7422,-0.7423,-0.7425,0,0,0,0,0,0,0,0,0,0,0,0,0,-0.7295,-0.7296,-0.738,-0.7381,-0.7381,-0.7414,-0.7414,-0.7415,-0.7391,-0.739,-0.7389,-0.7387,-0.7421,-0.7423,-0.7425,0,0,0,0,0,0,0,0,0,0,0,0,0,-0.733,-0.7297,-0.738,-0.7373,-0.7373,-0.7414,-0.7414,-0.7415,-0.7391,-0.739,-0.7388,-0.7387,-0.742,-0.7423,-0.7426,-0.7475,0,0,-0.7434,-0.7436,0,0,0,0,0,0,0,0,-0.7328,-0.7334,-0.7374,-0.7374,-0.7374,-0.7397,-0.7396,-0.7435,-0.7392,-0.7384,-0.7388,-0.7386,-0.7415,-0.7418,-0.7428,-0.7477,-0.7478,-0.7435,-0.7436,-0.7438,-0.7438,0,0,0,0,0,0,0,-0.7326,-0.7332,-0.7394,-0.7375,-0.7374,-0.7368,-0.7372,-0.7404,-0.7408,-0.7385,-0.7383,-0.7388,-0.7414,-0.7425,-0.7428,-0.7479,-0.7435,-0.7437,-0.7439,-0.744,-0.7569,-0.7571,0,0,0,0,0,0,-0.7324,-0.733,-0.7393,-0.7395,-0.7347,-0.7371,-0.7375,-0.7391,-0.7408,-0.7409,-0.7389,-0.7386,-0.7421,-0.7425,-0.7429,-0.7488,-0.7438,-0.744,-0.7442,-0.7567,-0.7569,-0.7571,0,0,0,0,0,0,-0.7323,-0.733,-0.7391,-0.7362,-0.7369,-0.7374,-0.7393,-0.7392,-0.7403,-0.7411,-0.7411,-0.7399,-0.742,-0.7425,-0.7464,-0.7489,-0.7441,-0.7444,-0.7565,-0.7568,-0.757,-0.7605,0,0,0,0,0,0,-0.732,-0.733,-0.7349,-0.7363,-0.7371,-0.7426,-0.7394,-0.7394,-0.7408,-0.7405,-0.742,-0.7421,-0.7419,-0.746,-0.7467,-0.7492,-0.7446,-0.7563,-0.7566,-0.7569,-0.7602,-0.7609,-0.7615,0,0,0,0,0,-0.7317,-0.7357,-0.735,-0.7357,-0.7395,-0.7427,-0.7432,-0.7429,-0.741,-0.7429,-0.7434,-0.7421,-0.7485,-0.7464,-0.7471,-0.7498,-0.7561,-0.7565,-0.7569,-0.7599,-0.7607,-0.7614,0,0,0,0,0,0,-0.7346,-0.7359,-0.7351,-0.7397,-0.7411,-0.7423,-0.7447,-0.7437,-0.7457,-0.7454,-0.7448,-0.7452,-0.7492,-0.7498,-0.7475,-0.7546,-0.752,-0.7526,-0.754,-0.7548,-0.7554,-0.7552,-0.7449,0,0,0,0,0,-0.7358,-0.7383,-0.7393,-0.7432,-0.744,-0.7442,-0.7456,-0.7452,-0.7467,-0.7473,-0.748,-0.7495,-0.7518,-0.7533,-0.7555,-0.7602,-0.7605,-0.7624,-0.7631,-0.7636,-0.7641,-0.7666,-0.7674,-0.7584,-0.7584,-0.7584,0,0,-0.7382,-0.7392,-0.7409,-0.7438,-0.7449,-0.7475,-0.7448,-0.7476,-0.7496,-0.7477,-0.7514,-0.752,-0.7535,-0.7579,-0.7598,-0.7585,-0.7666,-0.7641,-0.7645,-0.7647,-0.7671,-0.7679,-0.7687,-0.7587,-0.7586,-0.7586,0,0,-0.744,-0.745,-0.7484,-0.7495,-0.7512,-0.7513,-0.7521,-0.7535,-0.7538,-0.7575,-0.7561,-0.7584,-0.7624,-0.7636,-0.7647,-0.7708,-0.7697,-0.7715,-0.7749,-0.7773,-0.778,-0.7787,-0.7808,-0.7816,-0.772,-0.772,-0.772,0,-0.7468,-0.7508,-0.7503,-0.7533,-0.7546,-0.753,-0.7564,-0.7575,-0.7598,-0.7607,-0.7593,-0.7642,-0.7652,-0.7697,-0.7712,-0.7722,-0.773,-0.7714,-0.778,-0.7786,-0.7792,-0.7812,-0.7821,-0.7722,-0.7722,-0.7722,-0.7722,0,-0.7541,-0.7569,-0.7594,-0.7616,-0.7632,-0.7664,-0.7664,-0.7681,-0.7675,-0.7677,-0.7715,-0.7725,-0.7749,-0.7759,-0.7754,-0.7804,-0.7795,-0.778,-0.7754,-0.7803,-0.7822,-0.783,-0.7726,-0.7725,-0.7724,-0.7724,0,0,-0.7619,-0.7638,-0.7648,-0.7657,-0.7674,-0.7695,-0.7726,-0.7749,-0.7763,-0.7779,-0.7804,-0.7838,-0.7824,-0.7837,-0.7833,-0.7854,-0.7902,-0.7836,-0.7837,-0.7848,-0.7957,-0.7968,-0.7978,-0.7894,-0.7896,-0.7897,-0.7956,0,-0.7678,-0.7732,-0.7728,-0.7779,-0.7804,-0.7789,-0.7816,-0.7828,-0.7831,-0.7853,-0.7856,-0.788,-0.786,-0.7867,-0.7888,-0.7892,-0.7924,-0.7887,-0.7917,-0.7919,-0.7914,-0.7988,-0.8,-0.8055,-0.7963,-0.7964,-0.7965,0,-0.7754,-0.7773,-0.7826,-0.7839,-0.7849,-0.7873,-0.7894,-0.7914,-0.7928,-0.7928,-0.7942,-0.7934,-0.7965,-0.7938,-0.7979,-0.7955,-0.7966,-0.797,-0.7972,-0.7975,-0.7945,-0.7993,-0.8072,-0.8081,-0.7977,-0.7976,-0.7975,0,-0.7805,-0.7844,-0.7881,-0.7889,-0.7905,-0.7922,-0.7929,-0.7942,-0.7956,-0.7973,-0.7982,-0.8003,-0.8015,-0.8031,-0.8028,-0.8009,-0.8071,-0.8043,-0.8072,-0.8072,-0.8086,-0.8085,-0.8169,-0.8093,-0.8093,-0.8093,-0.8093,0,-0.7872,-0.7905,-0.7904,-0.7927,-0.7963,-0.7958,-0.7994,-0.7999,-0.801,-0.8033,-0.8021,-0.8043,-0.8038,-0.806,-0.8058,-0.8092,-0.8098,-0.8099,-0.8098,-0.81,-0.81,-0.8108,-0.8104,-0.8095,-0.8094,-0.8094,-0.8094,0,-0.7936,-0.7936,-0.7975,-0.7987,-0.799,-0.8017,-0.8026,-0.8047,-0.8049,-0.8078,-0.8084,-0.8087,-0.8112,-0.8111,-0.8138,-0.8137,-0.8179,-0.8174,-0.8175,-0.8174,-0.8202,-0.8199,-0.8294,-0.8306,-0.8223,-0.8223,-0.8224,0,-0.7978,-0.8003,-0.8017,-0.8032,-0.804,-0.8064,-0.8078,-0.8074,-0.8089,-0.8106,-0.8125,-0.8149,-0.8167,-0.8207,-0.8211,-0.8232,-0.8227,-0.8258,-0.823,-0.8231,-0.8227,-0.8226,-0.8228,-0.8264,-0.8265,-0.8266,-0.8267,0,-0.8053,-0.8052,-0.8073,-0.8094,-0.8111,-0.8128,-0.8143,-0.8155,-0.8152,-0.817,-0.8195,-0.8209,-0.8237,-0.8261,-0.828,-0.8287,-0.8276,-0.8275,-0.8283,-0.8285,-0.8285,-0.8285,-0.819,-0.8273,-0.8273,-0.8272,-0.8272,-0.8272,-0.8108,-0.8129,-0.8142,-0.8166,-0.8177,-0.8191,-0.8211,-0.8215,-0.8236,-0.8259,-0.8255,-0.8283,-0.8295,-0.8321,-0.8329,-0.8351,-0.8339,-0.835,-0.8353,-0.8356,-0.8359,-0.8281,-0.8354,-0.8354,-0.8354,-0.8354,-0.8353,0,-0.8182,-0.819,-0.8212,-0.8233,-0.8251,-0.8239,-0.8255,-0.8271,-0.8296,-0.8309,-0.8327,-0.8355,-0.8378,-0.8383,-0.8404,-0.842,-0.8416,-0.8426,-0.8425,-0.8426,-0.8368,-0.8359,-0.8429,-0.8429,-0.8429,-0.8429,-0.8429,-0.8429,-0.8223,-0.8259,-0.8259,-0.83,-0.8307,-0.8335,-0.8344,-0.8357,-0.8367,-0.8399,-0.8418,-0.8421,-0.8431,-0.8453,-0.8472,-0.8473,-0.8481,-0.8494,-0.8493,-0.8438,-0.8431,-0.8423,-0.8415,-0.8495,-0.8496,-0.8549,-0.855,-0.855]},{"header":{"parameterUnit":"m.s-1","parameterCategory":1,"la1":30.2991,"la2":30.254,"lo1":-89.0895,"lo2":-89.0444,"dy":0.0017,"dx":0.0017,"nx":28,"ny":28,"refTime":"2024-08-09T03:00:00:Z","depth":0,"parameterNumber":3,"parameterNumberName":"V-component_of_WINDS"},"data":[0,0,0,0,0,0,0,0,0,0,0,0,0,0,0,0,0,0,0,0,0,0,0,0,0,0,0,0,0,0,0,0,0,0,0,0,0,0,0,0,0,0,0,0,0,0,0,0,0,0,0,0,0,0,0,0,0,0,-4.6663,-4.6664,0,-4.6705,-4.6706,-4.6706,-4.6616,-4.6613,-4.661,-4.6607,-4.6646,-4.665,-4.6654,0,0,0,0,0,0,0,0,0,0,0,0,0,-4.65,-4.6504,-4.6663,-4.6664,-4.6664,-4.6705,-4.6706,-4.6706,-4.6616,-4.6613,-4.6609,-4.6606,-4.6645,-4.6649,-4.6654,0,0,0,0,0,0,0,0,0,0,0,0,0,-4.656,-4.6505,-4.6663,-4.6624,-4.6621,-4.6705,-4.6706,-4.6707,-4.6617,-4.6613,-4.6608,-4.6604,-4.6644,-4.6649,-4.6655,-4.6777,0,0,-4.6672,-4.6674,0,0,0,0,0,0,0,0,-4.6556,-4.6566,-4.6629,-4.6627,-4.6624,-4.6651,-4.6663,-4.673,-4.6618,-4.6618,-4.6607,-4.6602,-4.6651,-4.6656,-4.6673,-4.6779,-4.678,-4.6672,-4.6676,-4.6678,-4.668,0,0,0,0,0,0,0,-4.6552,-4.6563,-4.668,-4.663,-4.6627,-4.6603,-4.6607,-4.6675,-4.6659,-4.6618,-4.6612,-4.6618,-4.6649,-4.6668,-4.6673,-4.6781,-4.6672,-4.6677,-4.6681,-4.6683,-4.6988,-4.6993,0,0,0,0,0,0,-4.6554,-4.656,-4.6678,-4.6681,-4.6579,-4.661,-4.6614,-4.6647,-4.6658,-4.6655,-4.6622,-4.6614,-4.666,-4.6667,-4.6674,-4.6818,-4.6678,-4.6683,-4.6687,-4.6984,-4.6989,-4.6994,0,0,0,0,0,0,-4.6551,-4.6565,-4.6677,-4.6619,-4.6631,-4.6617,-4.6655,-4.665,-4.6669,-4.6661,-4.6657,-4.6645,-4.6657,-4.6666,-4.6752,-4.6818,-4.6686,-4.6691,-4.6978,-4.6985,-4.6992,-4.7107,0,0,0,0,0,0,-4.6546,-4.6565,-4.6612,-4.6621,-4.6635,-4.6756,-4.6659,-4.6654,-4.6679,-4.6669,-4.6681,-4.6679,-4.6655,-4.6744,-4.6758,-4.6824,-4.6695,-4.6972,-4.6981,-4.699,-4.7097,-4.7117,-4.7134,0,0,0,0,0,-4.6541,-4.6642,-4.6615,-4.663,-4.6694,-4.6759,-4.6767,-4.6738,-4.6685,-4.6732,-4.6726,-4.6678,-4.6809,-4.6754,-4.6768,-4.6837,-4.6968,-4.6979,-4.6989,-4.7089,-4.7113,-4.7134,0,0,0,0,0,0,-4.6639,-4.6642,-4.6612,-4.672,-4.674,-4.6744,-4.6802,-4.6765,-4.68,-4.6789,-4.675,-4.6754,-4.6847,-4.685,-4.6789,-4.6956,-4.6879,-4.6893,-4.695,-4.6973,-4.6991,-4.6989,-4.67,0,0,0,0,0,-4.6674,-4.6728,-4.6727,-4.6822,-4.6834,-4.6817,-4.6844,-4.682,-4.6839,-4.6847,-4.6848,-4.6867,-4.6912,-4.6943,-4.6984,-4.7097,-4.7098,-4.7151,-4.717,-4.7185,-4.7198,-4.7258,-4.7281,-4.7029,-4.7029,-4.7029,0,0,-4.6745,-4.6754,-4.679,-4.6842,-4.6855,-4.6911,-4.6824,-4.6887,-4.6928,-4.6856,-4.6938,-4.6939,-4.6958,-4.7058,-4.7102,-4.7063,-4.7268,-4.7199,-4.7211,-4.7215,-4.7271,-4.7295,-4.7316,-4.7037,-4.7035,-4.7034,0,0,-4.6904,-4.6916,-4.6996,-4.7012,-4.7033,-4.7021,-4.7041,-4.705,-4.7049,-4.713,-4.7078,-4.7124,-4.7203,-4.7219,-4.7237,-4.7402,-4.7359,-4.7417,-4.7513,-4.7572,-4.7592,-4.7609,-4.7668,-4.769,-4.7429,-4.7429,-4.743,0,-4.699,-4.7073,-4.7042,-4.7109,-4.7133,-4.7072,-4.7152,-4.7168,-4.7201,-4.7219,-4.7175,-4.7273,-4.7281,-4.7384,-4.7425,-4.7442,-4.7462,-4.7415,-4.7592,-4.7609,-4.7625,-4.768,-4.7703,-4.7436,-4.7435,-4.7435,-4.7434,0,-4.7177,-4.7236,-4.7298,-4.7334,-4.7365,-4.7438,-4.7416,-4.7451,-4.7424,-4.7417,-4.75,-4.7508,-4.7549,-4.7572,-4.7546,-4.7671,-4.7647,-4.7599,-4.7521,-4.7656,-4.7708,-4.7729,-4.7446,-4.7444,-4.7441,-4.744,0,0,-4.74,-4.7418,-4.7441,-4.7456,-4.7475,-4.7519,-4.7589,-4.7632,-4.7662,-4.7687,-4.7744,-4.7812,-4.7768,-4.7788,-4.7764,-4.7815,-4.7945,-4.776,-4.776,-4.7794,-4.8084,-4.812,-4.8146,-4.7917,-4.7921,-4.7924,-4.8082,0,-4.7557,-4.7679,-4.7653,-4.7773,-4.7826,-4.7769,-4.7829,-4.7847,-4.7842,-4.7885,-4.7877,-4.7927,-4.7864,-4.7877,-4.7925,-4.7919,-4.8003,-4.7908,-4.7969,-4.7971,-4.7966,-4.8172,-4.8211,-4.836,-4.8102,-4.8105,-4.8108,0,-4.7757,-4.7791,-4.7917,-4.7928,-4.7949,-4.8005,-4.8041,-4.8084,-4.8102,-4.8094,-4.8118,-4.8083,-4.8151,-4.8073,-4.8165,-4.8101,-4.8124,-4.8125,-4.813,-4.8135,-4.8048,-4.8183,-4.8407,-4.843,-4.8139,-4.8137,-4.8135,0,-4.7907,-4.7984,-4.8069,-4.8084,-4.8099,-4.8139,-4.8147,-4.8161,-4.8188,-4.8219,-4.8236,-4.8275,-4.8296,-4.8326,-4.8301,-4.8247,-4.8398,-4.8318,-4.8393,-4.8393,-4.8427,-4.8425,-4.8659,-4.8442,-4.8442,-4.8441,-4.8441,0,-4.8085,-4.8165,-4.8137,-4.8189,-4.8276,-4.8244,-4.833,-4.833,-4.8344,-4.8394,-4.8346,-4.8394,-4.8359,-4.8404,-4.8385,-4.8465,-4.8474,-4.8469,-4.8463,-4.8474,-4.8475,-4.8489,-4.8478,-4.8447,-4.8446,-4.8445,-4.8444,0,-4.8268,-4.8252,-4.8341,-4.8348,-4.8352,-4.8415,-4.842,-4.8468,-4.8459,-4.8524,-4.8537,-4.8522,-4.8573,-4.8551,-4.8604,-4.8591,-4.8693,-4.8673,-4.8688,-4.8683,-4.8759,-4.8752,-4.9009,-4.9041,-4.8805,-4.8807,-4.8809,0,-4.8383,-4.8443,-4.8456,-4.8488,-4.8499,-4.855,-4.8578,-4.8548,-4.8579,-4.8604,-4.8649,-4.8695,-4.8731,-4.8814,-4.8807,-4.8847,-4.8827,-4.8915,-4.8833,-4.8842,-4.8829,-4.8826,-4.8831,-4.8931,-4.8934,-4.8936,-4.8938,0,-4.8589,-4.8579,-4.8621,-4.8662,-4.8697,-4.8727,-4.8752,-4.878,-4.8752,-4.8788,-4.884,-4.8868,-4.8922,-4.8968,-4.9003,-4.9009,-4.8969,-4.8964,-4.8983,-4.8995,-4.9001,-4.8999,-4.8733,-4.8958,-4.8956,-4.8955,-4.8954,-4.8953,-4.8741,-4.8791,-4.881,-4.8859,-4.8875,-4.89,-4.8946,-4.8943,-4.8986,-4.9029,-4.9008,-4.9068,-4.9084,-4.9127,-4.9139,-4.9184,-4.915,-4.9178,-4.9185,-4.9193,-4.9203,-4.8994,-4.9191,-4.919,-4.9189,-4.9189,-4.9188,0,-4.8945,-4.8954,-4.8999,-4.9037,-4.9076,-4.9036,-4.9062,-4.9097,-4.915,-4.9169,-4.9206,-4.9265,-4.9309,-4.9306,-4.9347,-4.9384,-4.9367,-4.9396,-4.9393,-4.9395,-4.9231,-4.9211,-4.9409,-4.9409,-4.9409,-4.9409,-4.9409,-4.9409,-4.9055,-4.9139,-4.9131,-4.9221,-4.9229,-4.9288,-4.9307,-4.9329,-4.9344,-4.9413,-4.945,-4.9449,-4.9458,-4.95,-4.9538,-4.9536,-4.9553,-4.959,-4.9581,-4.9428,-4.9406,-4.9385,-4.9366,-4.9594,-4.9594,-4.974,-4.9741,-4.9743]}]]